Disclaimer

Please do not use the information listed here in-flight or in-navigation, as they are not provided to us by the airports but are provided by volunteers, so they might be outdated.

Search


Regions


Airport information page

Radio informations:
FUKUOKA - 133.85 MHz

Airport informations:
Latitude: 30° 36' 18.24" N
Longitude: 130° 59' 28.43" E
Elevation: 768 feet - 234 meters
Operating hours: N/A
Operating agency: Civil government, landing fees and diplomatic clearance may be required
Timezone: UTC+9
Fuel: N/A

Runway information:
13/31 - 6544 x 147 feet< - >1995 x 45 meters

Recent METARs:
RJFG 152310Z 31017KT 9999 FEW020 SCT025 BKN030 10/04 Q1020 RMK 1CU020 3CU025 5SC030 A3012

Airport on the map: